Hourly Weather Saidpur

Today, 20 September, Sunday

Time Temperature Precipitation Wind Pressure Humidity
00:00 +31°C° 0 mm 1 mps 747 mmHg 80%
01:00 +30°C° 0 mm 1 mps 746 mmHg 80%
02:00 +30°C° 0 mm 1 mps 746 mmHg 81%
03:00 +30°C° 0 mm 1 mps 745 mmHg 81%
04:00 +30°C° 0 mm 2 mps 746 mmHg 81%
05:00 +29°C° 0 mm 2 mps 746 mmHg 81%
06:00 +29°C° 0 mm 2 mps 746 mmHg 86%
07:00 +30°C° 0.7 mm 3 mps 746 mmHg 83%
08:00 +33°C° 0.7 mm 3 mps 746 mmHg 79%
09:00 +34°C° 0.7 mm 4 mps 747 mmHg 76%
10:00 +35°C° 0.5 mm 4 mps 747 mmHg 71%
11:00 +36°C° 0.5 mm 4 mps 746 mmHg 66%
12:00 +38°C° 0 mm 4 mps 746 mmHg 63%
13:00 +38°C° 0 mm 4 mps 746 mmHg 61%
14:00 +38°C° 0 mm 4 mps 745 mmHg 59%
15:00 +38°C° 0 mm 3 mps 744 mmHg 57%
16:00 +37°C° 0 mm 3 mps 744 mmHg 61%
17:00 +36°C° 0 mm 2 mps 745 mmHg 65%
18:00 +35°C° 0 mm 2 mps 745 mmHg 71%
19:00 +34°C° 0.5 mm 2 mps 745 mmHg 73%
20:00 +32°C° 0.5 mm 2 mps 746 mmHg 76%
21:00 +32°C° 0.5 mm 2 mps 747 mmHg 78%
22:00 +31°C° 0 mm 2 mps 747 mmHg 79%
23:00 +31°C° 0 mm 2 mps 747 mmHg 79%

Tomorrow, 21 September, Monday

Time Temperature Precipitation Wind Pressure Humidity
00:00 +31°C° 0 mm 1 mps 747 mmHg 80%
01:00 +31°C° 0 mm 1 mps 746 mmHg 81%
02:00 +30°C° 0 mm 1 mps 746 mmHg 83%
03:00 +30°C° 0 mm 1 mps 746 mmHg 84%
04:00 +30°C° 0.7 mm 2 mps 746 mmHg 86%
05:00 +29°C° 0.7 mm 2 mps 746 mmHg 87%
06:00 +29°C° 0.7 mm 3 mps 747 mmHg 89%
07:00 +30°C° 0.3 mm 3 mps 747 mmHg 86%
08:00 +30°C° 0.3 mm 4 mps 748 mmHg 84%
09:00 +32°C° 0.3 mm 5 mps 749 mmHg 82%
10:00 +33°C° 1.4 mm 5 mps 749 mmHg 79%
11:00 +33°C° 1.4 mm 6 mps 748 mmHg 76%
12:00 +34°C° 1.4 mm 7 mps 748 mmHg 73%
13:00 +34°C° 0.3 mm 6 mps 748 mmHg 73%
14:00 +34°C° 0.3 mm 6 mps 747 mmHg 72%
15:00 +35°C° 0.3 mm 6 mps 746 mmHg 71%
16:00 +34°C° 0.2 mm 6 mps 746 mmHg 75%
17:00 +33°C° 0.2 mm 5 mps 746 mmHg 79%
18:00 +32°C° 0.2 mm 5 mps 746 mmHg 83%
19:00 +30°C° 0.1 mm 5 mps 747 mmHg 84%
20:00 +30°C° 0.1 mm 5 mps 748 mmHg 86%
21:00 +29°C° 0.1 mm 6 mps 749 mmHg 87%
22:00 +29°C° 0.6 mm 5 mps 749 mmHg 88%
23:00 +29°C° 0.6 mm 5 mps 749 mmHg 88%

Day after tomorrow, 22 September, Tuesday

Time Temperature Precipitation Wind Pressure Humidity
00:00 +29°C° 0.6 mm 5 mps 749 mmHg 89%
01:00 +29°C° 1 mm 5 mps 749 mmHg 90%
02:00 +28°C° 1 mm 5 mps 748 mmHg 90%
03:00 +28°C° 1 mm 4 mps 748 mmHg 91%
04:00 +28°C° 2.3 mm 5 mps 748 mmHg 91%
05:00 +28°C° 2.3 mm 6 mps 748 mmHg 92%
06:00 +28°C° 2.3 mm 6 mps 748 mmHg 92%
07:00 +28°C° 2.1 mm 6 mps 749 mmHg 92%
08:00 +29°C° 2.1 mm 6 mps 749 mmHg 91%
09:00 +29°C° 2.1 mm 6 mps 750 mmHg 90%
10:00 +29°C° 1.4 mm 7 mps 749 mmHg 89%
11:00 +30°C° 1.4 mm 7 mps 749 mmHg 88%
12:00 +30°C° 1.4 mm 7 mps 749 mmHg 86%
13:00 +30°C° 2 mm 7 mps 749 mmHg 86%
14:00 +30°C° 2 mm 7 mps 748 mmHg 86%
15:00 +30°C° 2 mm 7 mps 748 mmHg 85%
16:00 +30°C° 0.3 mm 7 mps 748 mmHg 87%
17:00 +29°C° 0.3 mm 7 mps 747 mmHg 89%
18:00 +28°C° 0.3 mm 7 mps 747 mmHg 91%
19:00 +28°C° 0.1 mm 6 mps 748 mmHg 91%
20:00 +28°C° 0.1 mm 5 mps 749 mmHg 91%
21:00 +28°C° 0.1 mm 5 mps 749 mmHg 92%
22:00 +28°C° 0.7 mm 4 mps 749 mmHg 92%
23:00 +28°C° 0.7 mm 4 mps 749 mmHg 92%

23 September, Wednesday

Time Temperature Precipitation Wind Pressure Humidity
00:00 +28°C° 0.7 mm 3 mps 749 mmHg 92%
01:00 +28°C° 1.8 mm 3 mps 749 mmHg 92%
02:00 +28°C° 1.8 mm 3 mps 748 mmHg 93%
03:00 +28°C° 1.8 mm 3 mps 748 mmHg 93%
04:00 +28°C° 2 mm 4 mps 748 mmHg 94%
05:00 +28°C° 2 mm 4 mps 748 mmHg 94%
06:00 +28°C° 2 mm 5 mps 749 mmHg 94%
07:00 +28°C° 1.5 mm 5 mps 749 mmHg 93%
08:00 +28°C° 1.5 mm 5 mps 750 mmHg 92%
09:00 +29°C° 1.5 mm 5 mps 750 mmHg 90%
10:00 +29°C° 1.4 mm 5 mps 750 mmHg 89%
11:00 +30°C° 1.4 mm 6 mps 750 mmHg 87%
12:00 +32°C° 1.4 mm 6 mps 750 mmHg 85%
13:00 +30°C° 1.2 mm 6 mps 749 mmHg 86%
14:00 +30°C° 1.2 mm 6 mps 749 mmHg 86%
15:00 +30°C° 1.2 mm 6 mps 748 mmHg 87%
16:00 +29°C° 2.4 mm 5 mps 748 mmHg 90%
17:00 +28°C° 2.4 mm 5 mps 749 mmHg 92%
18:00 +28°C° 2.4 mm 5 mps 749 mmHg 94%
19:00 +27°C° 4.7 mm 5 mps 749 mmHg 95%
20:00 +27°C° 4.7 mm 4 mps 750 mmHg 96%
21:00 +27°C° 4.7 mm 4 mps 751 mmHg 97%
22:00 +27°C° 2.4 mm 4 mps 751 mmHg 97%
23:00 +27°C° 2.4 mm 3 mps 751 mmHg 97%

24 September, Thursday

Time Temperature Precipitation Wind Pressure Humidity
00:00 +27°C° 2.4 mm 2 mps 750 mmHg 97%
01:00 +27°C° 1.1 mm 2 mps 750 mmHg 97%
02:00 +27°C° 1.1 mm 3 mps 750 mmHg 97%
03:00 +27°C° 1.1 mm 3 mps 749 mmHg 97%
04:00 +27°C° 2.2 mm 3 mps 749 mmHg 97%
05:00 +27°C° 2.2 mm 3 mps 750 mmHg 97%
06:00 +27°C° 2.2 mm 3 mps 750 mmHg 97%
07:00 +28°C° 0.8 mm 3 mps 750 mmHg 95%
08:00 +28°C° 0.8 mm 3 mps 751 mmHg 93%
09:00 +29°C° 0.8 mm 3 mps 751 mmHg 91%
10:00 +29°C° 1.3 mm 3 mps 751 mmHg 91%
11:00 +29°C° 1.3 mm 3 mps 751 mmHg 90%
12:00 +29°C° 1.3 mm 3 mps 751 mmHg 90%
13:00 +29°C° 0.3 mm 3 mps 750 mmHg 90%
14:00 +29°C° 0.3 mm 4 mps 750 mmHg 90%
15:00 +29°C° 0.3 mm 4 mps 749 mmHg 91%
16:00 +29°C° 0 mm 4 mps 749 mmHg 92%
17:00 +29°C° 0 mm 4 mps 749 mmHg 92%
18:00 +28°C° 0 mm 4 mps 749 mmHg 93%
19:00 +28°C° 0.6 mm 4 mps 750 mmHg 94%
20:00 +28°C° 0.6 mm 4 mps 750 mmHg 95%
21:00 +28°C° 0.6 mm 4 mps 751 mmHg 95%
22:00 +27°C° 1.3 mm 4 mps 750 mmHg 96%
23:00 +27°C° 1.3 mm 4 mps 750 mmHg 96%

25 September, Friday

Time Temperature Precipitation Wind Pressure Humidity
00:00 +27°C° 1.3 mm 4 mps 750 mmHg 96%
01:00 +27°C° 2.4 mm 3 mps 749 mmHg 96%
02:00 +27°C° 2.4 mm 3 mps 749 mmHg 96%
03:00 +27°C° 2.4 mm 2 mps 748 mmHg 97%
04:00 +27°C° 1.2 mm 2 mps 748 mmHg 96%
05:00 +27°C° 1.2 mm 3 mps 748 mmHg 96%
06:00 +27°C° 1.2 mm 3 mps 748 mmHg 96%
07:00 +28°C° 1 mm 3 mps 749 mmHg 93%
08:00 +29°C° 1 mm 3 mps 749 mmHg 89%
09:00 +30°C° 1 mm 4 mps 749 mmHg 85%
10:00 +30°C° 2.8 mm 4 mps 749 mmHg 85%
11:00 +31°C° 2.8 mm 3 mps 748 mmHg 84%
12:00 +31°C° 2.8 mm 3 mps 748 mmHg 83%
13:00 +30°C° 2.4 mm 3 mps 748 mmHg 86%
14:00 +30°C° 2.4 mm 3 mps 747 mmHg 89%
15:00 +29°C° 2.4 mm 2 mps 747 mmHg 92%
16:00 +28°C° 1.2 mm 3 mps 747 mmHg 92%
17:00 +28°C° 1.2 mm 3 mps 746 mmHg 93%
18:00 +28°C° 1.2 mm 4 mps 746 mmHg 94%
19:00 +28°C° 0.5 mm 3 mps 747 mmHg 94%
20:00 +28°C° 0.5 mm 3 mps 747 mmHg 94%
21:00 +28°C° 0.5 mm 3 mps 748 mmHg 95%
22:00 +28°C° 0.7 mm 3 mps 748 mmHg 95%
23:00 +27°C° 0.7 mm 3 mps 747 mmHg 96%
Show more